[[{"header":{"parameterUnit":"m.s-1","parameterCategory":1,"la1":30.2991,"la2":30.254,"lo1":-89.0895,"lo2":-89.0444,"dy":0.0017,"dx":0.0017,"nx":28,"ny":28,"refTime":"2023-08-12T21:00:00:Z","depth":0,"parameterNumber":2,"parameterNumberName":"U-component_of_WINDS"},"data":[0,0,0,0,0,0,0,0,0,0,0,0,0,0,0,0,0,0,0,0,0,0,0,0,0,0,0,0,0,0,0,0,0,0,0,0,0,0,0,0,0,0,0,0,0,0,0,0,0,0,0,0,0,0,0,0,0,0,1.0836,1.0838,0,1.0974,1.0976,1.0978,1.1017,1.1016,1.1015,1.1014,1.1159,1.1163,1.1168,0,0,0,0,0,0,0,0,0,0,0,0,0,1.0608,1.0612,1.0836,1.0838,1.084,1.0974,1.0976,1.0978,1.1017,1.1016,1.1015,1.1014,1.1157,1.1163,1.1168,0,0,0,0,0,0,0,0,0,0,0,0,0,1.0723,1.0613,1.0836,1.0875,1.088,1.0974,1.0976,1.0978,1.1017,1.1016,1.1015,1.1013,1.1155,1.1162,1.1169,1.1234,0,0,1.119,1.1193,0,0,0,0,0,0,0,0,1.0716,1.0731,1.0868,1.0873,1.0878,1.0977,1.0949,1.1064,1.1017,1.0965,1.1014,1.1013,1.1099,1.1111,1.1139,1.1241,1.1247,1.119,1.1195,1.1197,1.1199,0,0,0,0,0,0,0,1.0708,1.0725,1.0891,1.087,1.0876,1.0886,1.0901,1.0971,1.1037,1.0969,1.0973,1.0988,1.1102,1.1133,1.1143,1.1249,1.119,1.1196,1.1201,1.1203,1.1411,1.1412,0,0,0,0,0,0,1.0693,1.0718,1.0887,1.0895,1.0793,1.0891,1.0908,1.0947,1.1036,1.1049,1.0989,1.099,1.1122,1.1135,1.1148,1.123,1.1197,1.1204,1.1208,1.141,1.1411,1.1413,0,0,0,0,0,0,1.0688,1.0708,1.0881,1.0808,1.083,1.0897,1.0939,1.095,1.098,1.1051,1.1064,1.1008,1.1121,1.1139,1.1212,1.1236,1.1207,1.1213,1.1408,1.141,1.1412,1.1394,0,0,0,0,0,0,1.0681,1.0706,1.0731,1.0808,1.0834,1.0942,1.0941,1.0953,1.0992,1.0994,1.1072,1.1084,1.1122,1.1202,1.1219,1.1244,1.1219,1.1406,1.1409,1.1411,1.1393,1.1395,1.1398,0,0,0,0,0,1.0673,1.0721,1.0732,1.0752,1.0867,1.0943,1.0958,1.1,1.0993,1.1019,1.1065,1.1082,1.123,1.1209,1.1229,1.1257,1.1405,1.1408,1.1411,1.1392,1.1395,1.1397,0,0,0,0,0,0,1.0646,1.0732,1.0745,1.0819,1.0873,1.095,1.0984,1.1002,1.1059,1.1059,1.1109,1.1126,1.1196,1.1234,1.1209,1.1324,1.1318,1.1325,1.1297,1.13,1.1302,1.1291,1.1224,0,0,0,0,0,1.0648,1.0703,1.0775,1.0834,1.086,1.0917,1.0952,1.0979,1.1037,1.1061,1.1112,1.1169,1.1228,1.1266,1.1325,1.1399,1.1416,1.1428,1.143,1.1431,1.1437,1.1478,1.1484,1.1423,1.1423,1.1423,0,0,1.0655,1.0708,1.074,1.083,1.0875,1.093,1.0936,1.0995,1.1036,1.107,1.1142,1.1181,1.1248,1.1322,1.1357,1.1356,1.1458,1.1436,1.1436,1.1441,1.1482,1.1487,1.1492,1.1425,1.1425,1.1425,0,0,1.0694,1.074,1.0793,1.0838,1.0906,1.0944,1.0956,1.103,1.1057,1.1129,1.1156,1.1206,1.1308,1.1354,1.1391,1.1446,1.1464,1.1464,1.1476,1.1515,1.152,1.1524,1.1543,1.155,1.147,1.147,1.147,0,1.0693,1.0776,1.0819,1.0875,1.0914,1.0946,1.1001,1.1043,1.1126,1.1153,1.115,1.1277,1.1325,1.1409,1.1422,1.1451,1.1467,1.1455,1.1516,1.1521,1.1525,1.1544,1.1551,1.1469,1.1469,1.147,1.147,0,1.0771,1.0829,1.0864,1.0943,1.0986,1.1041,1.1092,1.113,1.1154,1.1191,1.1265,1.1323,1.1393,1.1415,1.1439,1.1503,1.15,1.1506,1.15,1.153,1.1548,1.1556,1.1469,1.1469,1.1469,1.1469,0,0,1.0797,1.0898,1.091,1.0946,1.1023,1.1069,1.1126,1.1193,1.1225,1.1282,1.133,1.1415,1.1421,1.1463,1.1492,1.1526,1.1565,1.1528,1.1531,1.1532,1.1638,1.1632,1.164,1.1577,1.1579,1.158,1.1632,0,1.0845,1.0947,1.0986,1.1069,1.1123,1.1154,1.1203,1.1256,1.1293,1.1344,1.1385,1.1444,1.1447,1.1472,1.1508,1.1553,1.1587,1.155,1.1623,1.1625,1.1604,1.1649,1.1644,1.169,1.164,1.1641,1.1642,0,1.0915,1.0971,1.1059,1.1128,1.1152,1.1196,1.1261,1.1309,1.137,1.1394,1.144,1.1467,1.1528,1.1518,1.1603,1.1576,1.1609,1.1636,1.1638,1.1646,1.1635,1.1658,1.1706,1.1712,1.1654,1.1653,1.1652,0,1.0923,1.1021,1.1086,1.1116,1.1199,1.1229,1.1265,1.1324,1.1362,1.1419,1.1444,1.1508,1.1543,1.1592,1.1635,1.1625,1.1715,1.171,1.1737,1.1736,1.1754,1.1752,1.1807,1.1776,1.1776,1.1776,1.1776,0,1.0972,1.1024,1.1091,1.1131,1.119,1.1235,1.1293,1.1332,1.1384,1.1432,1.1463,1.1508,1.1563,1.1615,1.1649,1.1713,1.1729,1.175,1.1759,1.1747,1.1744,1.1769,1.1766,1.1778,1.1777,1.1777,1.1777,0,1.0991,1.1038,1.1111,1.1183,1.1203,1.1243,1.1306,1.1346,1.1383,1.1444,1.1461,1.152,1.1583,1.1631,1.1713,1.1736,1.1803,1.1813,1.1782,1.1786,1.181,1.1807,1.1882,1.1894,1.1855,1.1856,1.1856,0,1.1019,1.106,1.1136,1.117,1.1206,1.1261,1.1299,1.1345,1.1384,1.1455,1.1487,1.1551,1.1605,1.1703,1.1754,1.1816,1.1827,1.1849,1.1837,1.1823,1.1827,1.1823,1.1827,1.185,1.1851,1.1851,1.1851,0,1.1063,1.1084,1.1138,1.12,1.1244,1.1296,1.1347,1.1374,1.1429,1.1471,1.1535,1.1576,1.1659,1.1722,1.1789,1.1827,1.1848,1.1854,1.1864,1.1852,1.1832,1.1842,1.1785,1.1852,1.1852,1.1852,1.1852,1.1852,1.1087,1.1124,1.1183,1.1242,1.1286,1.1333,1.1374,1.1417,1.147,1.154,1.1564,1.163,1.1689,1.1781,1.1819,1.1871,1.1872,1.1886,1.189,1.1892,1.189,1.1824,1.1884,1.1884,1.1884,1.1884,1.1884,0,1.1131,1.1171,1.1225,1.1296,1.1342,1.1357,1.1415,1.1453,1.1509,1.1562,1.1614,1.1687,1.1748,1.1803,1.1867,1.1898,1.1909,1.1913,1.1911,1.1919,1.1886,1.1871,1.1903,1.1903,1.1903,1.1903,1.1903,1.1903,1.116,1.1223,1.1251,1.1337,1.1376,1.144,1.1471,1.1515,1.1558,1.1637,1.1688,1.1723,1.1777,1.1845,1.1902,1.1917,1.1938,1.194,1.1957,1.1925,1.1922,1.192,1.1906,1.1944,1.1944,1.1986,1.1986,1.1986]},{"header":{"parameterUnit":"m.s-1","parameterCategory":1,"la1":30.2991,"la2":30.254,"lo1":-89.0895,"lo2":-89.0444,"dy":0.0017,"dx":0.0017,"nx":28,"ny":28,"refTime":"2023-08-12T21:00:00:Z","depth":0,"parameterNumber":3,"parameterNumberName":"V-component_of_WINDS"},"data":[0,0,0,0,0,0,0,0,0,0,0,0,0,0,0,0,0,0,0,0,0,0,0,0,0,0,0,0,0,0,0,0,0,0,0,0,0,0,0,0,0,0,0,0,0,0,0,0,0,0,0,0,0,0,0,0,0,0,4.3847,4.3847,0,4.3805,4.3805,4.3804,4.3797,4.3797,4.3797,4.3798,4.3748,4.3746,4.3745,0,0,0,0,0,0,0,0,0,0,0,0,0,4.3913,4.3912,4.3847,4.3847,4.3846,4.3806,4.3805,4.3804,4.3797,4.3797,4.3797,4.3798,4.3748,4.3747,4.3745,0,0,0,0,0,0,0,0,0,0,0,0,0,4.3879,4.3912,4.3847,4.3838,4.3836,4.3806,4.3805,4.3804,4.3797,4.3797,4.3798,4.3798,4.3749,4.3747,4.3744,4.3718,0,0,4.3737,4.3736,0,0,0,0,0,0,0,0,4.3881,4.3877,4.3839,4.3838,4.3837,4.3807,4.381,4.3775,4.3796,4.3811,4.3798,4.3798,4.3767,4.3763,4.3754,4.3716,4.3714,4.3736,4.3735,4.3734,4.3733,0,0,0,0,0,0,0,4.3884,4.3878,4.383,4.3839,4.3837,4.3833,4.3829,4.3803,4.3786,4.381,4.381,4.3805,4.3766,4.3756,4.3752,4.3713,4.3737,4.3734,4.3733,4.3732,4.365,4.3649,0,0,0,0,0,0,4.3889,4.3881,4.3832,4.3829,4.3861,4.3831,4.3827,4.3816,4.3787,4.3783,4.3805,4.3805,4.376,4.3755,4.3751,4.3717,4.3734,4.3732,4.373,4.3651,4.365,4.3649,0,0,0,0,0,0,4.389,4.3884,4.3833,4.3855,4.3848,4.383,4.3818,4.3815,4.3805,4.3783,4.3779,4.3798,4.376,4.3754,4.3726,4.3715,4.373,4.3728,4.3652,4.365,4.365,4.3651,0,0,0,0,0,0,4.3892,4.3885,4.3877,4.3855,4.3847,4.3812,4.3817,4.3814,4.3801,4.3801,4.3775,4.3771,4.376,4.373,4.3724,4.3712,4.3726,4.3652,4.3651,4.365,4.3652,4.365,4.3649,0,0,0,0,0,4.3894,4.3877,4.3876,4.387,4.3836,4.3812,4.3807,4.3796,4.3801,4.3791,4.3776,4.3772,4.3718,4.3728,4.372,4.3708,4.3653,4.3651,4.365,4.3653,4.3651,4.3649,0,0,0,0,0,0,4.3896,4.3874,4.3873,4.3849,4.3832,4.3811,4.3798,4.3795,4.3775,4.3776,4.3761,4.3755,4.3728,4.3715,4.3726,4.368,4.3685,4.3682,4.369,4.3688,4.3686,4.3689,4.3724,0,0,0,0,0,4.3894,4.3878,4.3859,4.3839,4.3832,4.3816,4.3805,4.3799,4.378,4.3772,4.3756,4.3736,4.3714,4.37,4.3679,4.365,4.3643,4.3638,4.3636,4.3635,4.3632,4.3614,4.3611,4.3644,4.3644,4.3644,0,0,4.3889,4.3875,4.3866,4.384,4.3826,4.3808,4.381,4.3791,4.3776,4.3769,4.3742,4.3729,4.3706,4.3677,4.3664,4.3666,4.3622,4.3633,4.3632,4.363,4.3612,4.3609,4.3606,4.3643,4.3643,4.3643,0,0,4.387,4.3859,4.3841,4.3828,4.3809,4.3798,4.3794,4.3773,4.3765,4.3738,4.3732,4.3713,4.3676,4.366,4.3647,4.3621,4.3616,4.3614,4.3606,4.3589,4.3586,4.3584,4.3573,4.357,4.3612,4.3612,4.3612,0,4.3866,4.384,4.3832,4.3813,4.3801,4.3795,4.3776,4.3762,4.3736,4.3726,4.373,4.3683,4.3667,4.3634,4.3628,4.3618,4.3611,4.3617,4.3588,4.3585,4.3583,4.3572,4.3569,4.3612,4.3612,4.3612,4.3612,0,4.3835,4.3817,4.3805,4.3782,4.3768,4.3749,4.3735,4.3722,4.3716,4.3705,4.3677,4.3658,4.3632,4.3624,4.3617,4.3589,4.3591,4.3591,4.3596,4.358,4.357,4.3566,4.3612,4.3612,4.3612,4.3612,0,0,4.3816,4.3789,4.3785,4.3774,4.3752,4.3736,4.3716,4.3693,4.3681,4.3663,4.3644,4.3613,4.3613,4.3598,4.3589,4.3574,4.3554,4.3576,4.3575,4.3571,4.352,4.3519,4.3515,4.3551,4.355,4.3549,4.3521,0,4.3794,4.376,4.3752,4.3722,4.3704,4.3698,4.368,4.3663,4.3652,4.3633,4.3619,4.3598,4.36,4.359,4.3575,4.356,4.3543,4.3561,4.353,4.3529,4.3536,4.351,4.351,4.3485,4.3517,4.3517,4.3516,0,4.3764,4.3747,4.3716,4.3696,4.3688,4.3672,4.365,4.3633,4.3613,4.3606,4.3589,4.3582,4.3557,4.3564,4.3529,4.3542,4.3529,4.3519,4.3517,4.3513,4.3521,4.3504,4.3476,4.3472,4.351,4.3511,4.3511,0,4.3752,4.3721,4.3699,4.369,4.3666,4.3654,4.3643,4.3624,4.3611,4.359,4.3581,4.3557,4.3544,4.3525,4.351,4.3517,4.3476,4.3482,4.3467,4.3467,4.3458,4.3459,4.3427,4.3451,4.3451,4.3451,4.3451,0,4.3728,4.3709,4.3693,4.3679,4.3657,4.3646,4.3623,4.3612,4.3594,4.3576,4.3569,4.3551,4.3533,4.3513,4.3501,4.3473,4.3467,4.3458,4.3455,4.3459,4.346,4.3449,4.345,4.345,4.345,4.3451,4.3451,0,4.3711,4.37,4.3674,4.3654,4.3648,4.3633,4.3614,4.3599,4.3588,4.3564,4.3558,4.3539,4.3514,4.3498,4.3466,4.3458,4.3427,4.3425,4.3434,4.3433,4.3419,4.342,4.3378,4.3371,4.3401,4.3401,4.3401,0,4.3696,4.3681,4.366,4.3648,4.3638,4.3619,4.3606,4.3594,4.358,4.3555,4.3542,4.3518,4.3497,4.3457,4.3439,4.3414,4.341,4.3397,4.3406,4.341,4.3408,4.3409,4.3407,4.3395,4.3395,4.3395,4.3395,0,4.367,4.3665,4.3648,4.3628,4.3613,4.3596,4.3579,4.357,4.3554,4.3539,4.3515,4.3499,4.3467,4.3441,4.3414,4.34,4.3394,4.3392,4.3387,4.339,4.3396,4.3391,4.3429,4.3393,4.3393,4.3393,4.3393,4.3393,4.3652,4.3639,4.3622,4.3602,4.3589,4.3573,4.3558,4.3545,4.3526,4.35,4.3494,4.3468,4.3446,4.341,4.3395,4.3373,4.3374,4.3367,4.3365,4.3363,4.3363,4.3401,4.3368,4.3368,4.3368,4.3368,4.3368,0,4.3625,4.3614,4.3596,4.3574,4.3558,4.3557,4.3537,4.3523,4.3502,4.3483,4.3464,4.3435,4.341,4.339,4.3364,4.335,4.3346,4.3343,4.3343,4.334,4.3363,4.337,4.3347,4.3347,4.3347,4.3347,4.3347,4.3347,4.3609,4.3586,4.3579,4.3549,4.3537,4.3514,4.3503,4.3487,4.3472,4.3442,4.3422,4.341,4.339,4.3362,4.3338,4.3333,4.3323,4.332,4.3314,4.3336,4.3338,4.3341,4.3347,4.3319,4.3319,4.3292,4.3292,4.3292]}]]